Powrót do katalogu

THORAD AGENA D DEB

AktywnySSO
NORAD 4992·DEBRIS·🇺🇸 United States

Wystrzelony Apr 8, 1970 z Vandenberg Space Force Base

Loading…

Następne Przeloty

TLE

Source: Space-Track
1  4992U 70025HN  26225.09367404  .00000067  00000-0  15109-3 0  9990
2  4992 100.1039  78.4608 0014609 211.9040 299.9666 13.61162655790931

Śledź THORAD AGENA D DEB w czasie rzeczywistym z AllMySat

Download on the App Store